[[{"header":{"parameterUnit":"m.s-1","parameterCategory":1,"la1":30.2991,"la2":30.254,"lo1":-89.0895,"lo2":-89.0444,"dy":0.0017,"dx":0.0017,"nx":28,"ny":28,"refTime":"2024-05-16T21:00:00:Z","depth":0,"parameterNumber":2,"parameterNumberName":"U-component_of_WINDS"},"data":[0,0,0,0,0,0,0,0,0,0,0,0,0,0,0,0,0,0,0,0,0,0,0,0,0,0,0,0,0,0,0,0,0,0,0,0,0,0,0,0,0,0,0,0,0,0,0,0,0,0,0,0,0,0,0,0,0,0,-2.0028,-2.0026,0,-1.985,-1.9848,-1.9845,-1.9839,-1.9841,-1.9843,-1.9845,-1.9649,-1.9642,-1.9635,0,0,0,0,0,0,0,0,0,0,0,0,0,-2.0349,-2.0343,-2.0028,-2.0026,-2.0023,-1.985,-1.9847,-1.9845,-1.9838,-1.9841,-1.9843,-1.9846,-1.9652,-1.9643,-1.9634,0,0,0,0,0,0,0,0,0,0,0,0,0,-2.0194,-2.0341,-2.0028,-1.9999,-1.9995,-1.985,-1.9847,-1.9844,-1.9838,-1.9841,-1.9844,-1.9847,-1.9654,-1.9644,-1.9633,-1.9501,0,0,-1.96,-1.9595,0,0,0,0,0,0,0,0,-2.0203,-2.0182,-2.0006,-2.0001,-1.9996,-1.987,-1.9889,-1.9729,-1.9837,-1.9897,-1.9845,-1.9849,-1.9719,-1.9703,-1.9662,-1.9492,-1.9484,-1.9599,-1.9592,-1.9588,-1.9585,0,0,0,0,0,0,0,-2.0213,-2.019,-1.9957,-2.0003,-1.9997,-1.9991,-1.9973,-1.9859,-1.9791,-1.9892,-1.9891,-1.9871,-1.9717,-1.9673,-1.9657,-1.9481,-1.9599,-1.959,-1.9583,-1.9579,-1.9191,-1.9187,0,0,0,0,0,0,-2.0232,-2.0199,-1.9963,-1.9952,-2.011,-1.9983,-1.9962,-1.9907,-1.9793,-1.9779,-1.9868,-1.9871,-1.969,-1.967,-1.9651,-1.9487,-1.9588,-1.9578,-1.9572,-1.9194,-1.919,-1.9186,0,0,0,0,0,0,-2.0239,-2.0211,-1.997,-2.0075,-2.0044,-1.9974,-1.9912,-1.9902,-1.9858,-1.9775,-1.9762,-1.9836,-1.9691,-1.9666,-1.9539,-1.948,-1.9573,-1.9563,-1.9199,-1.9193,-1.9188,-1.916,0,0,0,0,0,0,-2.0248,-2.0213,-2.0166,-2.0074,-2.0038,-1.9865,-1.9908,-1.9896,-1.984,-1.9843,-1.9741,-1.9728,-1.9692,-1.9555,-1.9528,-1.9467,-1.9555,-1.9204,-1.9196,-1.9189,-1.9166,-1.9154,-1.9144,0,0,0,0,0,-2.0259,-2.0162,-2.0163,-2.0135,-1.9978,-1.9862,-1.9841,-1.9805,-1.9836,-1.9785,-1.9732,-1.9731,-1.9492,-1.9542,-1.9512,-1.9446,-1.9207,-1.9198,-1.919,-1.9171,-1.9157,-1.9145,0,0,0,0,0,0,-2.0244,-2.015,-2.015,-2.0021,-1.995,-1.9861,-1.9796,-1.9792,-1.9707,-1.9712,-1.9668,-1.9645,-1.9518,-1.9469,-1.9528,-1.9311,-1.9352,-1.9337,-1.9348,-1.9334,-1.9323,-1.9337,-1.9545,0,0,0,0,0,-2.0227,-2.0145,-2.0065,-1.9959,-1.9924,-1.9866,-1.9814,-1.9793,-1.9716,-1.9684,-1.9622,-1.9543,-1.945,-1.9389,-1.9299,-1.9159,-1.9135,-1.9099,-1.9088,-1.908,-1.9067,-1.8986,-1.8969,-1.9157,-1.9158,-1.9158,0,0,-2.0188,-2.0126,-2.0076,-1.9954,-1.9897,-1.9808,-1.984,-1.9746,-1.9679,-1.9668,-1.9546,-1.9497,-1.9406,-1.9272,-1.9209,-1.9227,-1.9009,-1.9069,-1.9063,-1.9054,-1.8976,-1.8958,-1.8942,-1.9152,-1.9153,-1.9154,0,0,-2.0073,-2.0019,-1.9925,-1.9867,-1.9781,-1.9744,-1.9721,-1.9632,-1.9601,-1.9478,-1.9468,-1.9385,-1.9227,-1.9162,-1.9108,-1.8968,-1.8962,-1.8939,-1.8882,-1.8804,-1.8789,-1.8776,-1.8723,-1.8706,-1.8927,-1.8927,-1.8927,0,-2.0034,-1.9906,-1.9875,-1.9781,-1.9726,-1.9718,-1.9619,-1.9563,-1.945,-1.941,-1.9433,-1.9234,-1.9172,-1.9021,-1.8987,-1.8945,-1.8914,-1.895,-1.8795,-1.8781,-1.8768,-1.8717,-1.8698,-1.8924,-1.8925,-1.8925,-1.8925,0,-1.9861,-1.9772,-1.9705,-1.9601,-1.9538,-1.9442,-1.9393,-1.9333,-1.9317,-1.9276,-1.9149,-1.9075,-1.8969,-1.8932,-1.8914,-1.8778,-1.8791,-1.8805,-1.8845,-1.8748,-1.87,-1.868,-1.8921,-1.8922,-1.8922,-1.8923,0,0,-1.973,-1.9612,-1.9588,-1.954,-1.9445,-1.9372,-1.9274,-1.9175,-1.9123,-1.9045,-1.8959,-1.8825,-1.8837,-1.8776,-1.8751,-1.8683,-1.8574,-1.8704,-1.8702,-1.8681,-1.8416,-1.8405,-1.8384,-1.8571,-1.8568,-1.8564,-1.8423,0,-1.9603,-1.9434,-1.9404,-1.9254,-1.9169,-1.9159,-1.9073,-1.9003,-1.8961,-1.8879,-1.8832,-1.8737,-1.8762,-1.8724,-1.8657,-1.8602,-1.852,-1.8612,-1.8486,-1.8482,-1.8508,-1.8359,-1.8347,-1.8217,-1.8404,-1.8401,-1.8399,0,-1.9432,-1.9354,-1.9198,-1.9113,-1.9076,-1.9,-1.8906,-1.883,-1.8748,-1.8722,-1.8655,-1.8637,-1.853,-1.8577,-1.8427,-1.849,-1.8436,-1.8401,-1.8395,-1.838,-1.8433,-1.8337,-1.8175,-1.8155,-1.8369,-1.8371,-1.8374,0,-1.935,-1.9206,-1.9093,-1.9052,-1.8951,-1.8898,-1.8852,-1.8775,-1.8717,-1.8633,-1.8594,-1.8497,-1.8443,-1.8367,-1.8322,-1.836,-1.8174,-1.8217,-1.8145,-1.8146,-1.8105,-1.8108,-1.793,-1.8074,-1.8075,-1.8075,-1.8075,0,-1.921,-1.9114,-1.9055,-1.8985,-1.8876,-1.884,-1.8731,-1.8685,-1.8616,-1.8534,-1.8519,-1.8441,-1.8388,-1.8301,-1.8265,-1.8144,-1.812,-1.8093,-1.8084,-1.8093,-1.8097,-1.8056,-1.8063,-1.807,-1.8071,-1.8072,-1.8073,0,-1.9099,-1.9056,-1.8932,-1.8848,-1.8825,-1.8747,-1.8673,-1.8602,-1.8562,-1.8458,-1.8431,-1.8365,-1.8262,-1.8211,-1.8081,-1.8057,-1.792,-1.7917,-1.7949,-1.7945,-1.7875,-1.7882,-1.7663,-1.7631,-1.78,-1.7798,-1.7797,0,-1.9012,-1.8938,-1.8847,-1.8793,-1.8748,-1.8661,-1.8603,-1.8564,-1.8502,-1.8404,-1.8344,-1.8242,-1.8158,-1.7993,-1.7931,-1.7831,-1.7824,-1.7755,-1.7809,-1.782,-1.782,-1.7824,-1.7815,-1.7744,-1.7743,-1.7741,-1.774,0,-1.8861,-1.8843,-1.8763,-1.8674,-1.8606,-1.8532,-1.846,-1.8415,-1.8364,-1.8295,-1.8193,-1.8128,-1.7998,-1.7894,-1.7791,-1.7738,-1.7728,-1.7724,-1.7702,-1.7709,-1.773,-1.7715,-1.792,-1.7729,-1.773,-1.7731,-1.7731,-1.7732,-1.8757,-1.8691,-1.8617,-1.8526,-1.8469,-1.8401,-1.8331,-1.8283,-1.8198,-1.8092,-1.8073,-1.7963,-1.788,-1.7741,-1.7685,-1.7595,-1.761,-1.7578,-1.757,-1.7562,-1.7557,-1.7747,-1.7576,-1.7577,-1.7577,-1.7577,-1.7577,0,-1.8603,-1.8556,-1.8473,-1.8375,-1.8302,-1.8306,-1.8225,-1.8163,-1.8068,-1.7995,-1.7913,-1.7793,-1.7693,-1.7624,-1.7521,-1.7462,-1.7454,-1.7436,-1.7438,-1.7426,-1.7551,-1.758,-1.7443,-1.7443,-1.7443,-1.7443,-1.7443,-1.7443,-1.8515,-1.8402,-1.8376,-1.8233,-1.8184,-1.808,-1.8034,-1.797,-1.7911,-1.778,-1.7699,-1.7656,-1.7582,-1.7474,-1.738,-1.7362,-1.7323,-1.7304,-1.7285,-1.7403,-1.7417,-1.743,-1.7457,-1.7297,-1.7296,-1.7166,-1.7165,-1.7164]},{"header":{"parameterUnit":"m.s-1","parameterCategory":1,"la1":30.2991,"la2":30.254,"lo1":-89.0895,"lo2":-89.0444,"dy":0.0017,"dx":0.0017,"nx":28,"ny":28,"refTime":"2024-05-16T21:00:00:Z","depth":0,"parameterNumber":3,"parameterNumberName":"V-component_of_WINDS"},"data":[0,0,0,0,0,0,0,0,0,0,0,0,0,0,0,0,0,0,0,0,0,0,0,0,0,0,0,0,0,0,0,0,0,0,0,0,0,0,0,0,0,0,0,0,0,0,0,0,0,0,0,0,0,0,0,0,0,0,0.9278,0.9278,0,0.9291,0.9291,0.9292,0.9262,0.9261,0.926,0.9259,0.9274,0.9275,0.9277,0,0,0,0,0,0,0,0,0,0,0,0,0,0.9228,0.9229,0.9278,0.9278,0.9278,0.9291,0.9291,0.9292,0.9262,0.9261,0.926,0.9259,0.9274,0.9275,0.9277,0,0,0,0,0,0,0,0,0,0,0,0,0,0.9246,0.9229,0.9278,0.9265,0.9264,0.9291,0.9292,0.9292,0.9262,0.9261,0.9259,0.9258,0.9273,0.9275,0.9277,0.9318,0,0,0.9283,0.9284,0,0,0,0,0,0,0,0,0.9245,0.9248,0.9267,0.9266,0.9265,0.9273,0.9279,0.9301,0.9263,0.9263,0.9259,0.9257,0.9275,0.9277,0.9283,0.9319,0.9319,0.9283,0.9284,0.9285,0.9286,0,0,0,0,0,0,0,0.9244,0.9248,0.9283,0.9267,0.9266,0.9259,0.926,0.9283,0.9277,0.9263,0.9261,0.9263,0.9274,0.9281,0.9283,0.9319,0.9283,0.9285,0.9286,0.9287,0.9392,0.9393,0,0,0,0,0,0,0.9244,0.9247,0.9283,0.9283,0.9251,0.9261,0.9262,0.9272,0.9277,0.9276,0.9264,0.9261,0.9278,0.928,0.9283,0.9333,0.9285,0.9287,0.9288,0.939,0.9392,0.9394,0,0,0,0,0,0,0.9243,0.9248,0.9282,0.9265,0.9268,0.9264,0.9275,0.9273,0.9279,0.9277,0.9276,0.9271,0.9277,0.928,0.931,0.9333,0.9288,0.929,0.9388,0.9391,0.9393,0.9431,0,0,0,0,0,0,0.9242,0.9248,0.9263,0.9265,0.9269,0.9308,0.9276,0.9274,0.9283,0.9279,0.9284,0.9284,0.9276,0.9307,0.9312,0.9335,0.9291,0.9386,0.9389,0.9392,0.9428,0.9435,0.9441,0,0,0,0,0,0.924,0.9273,0.9263,0.9268,0.9288,0.9309,0.9312,0.9302,0.9285,0.93,0.9299,0.9284,0.9329,0.931,0.9315,0.9339,0.9385,0.9388,0.9392,0.9425,0.9434,0.9441,0,0,0,0,0,0,0.9273,0.9273,0.9262,0.9296,0.9303,0.9304,0.9323,0.9311,0.9323,0.932,0.9308,0.9309,0.9341,0.9343,0.9322,0.938,0.9354,0.9359,0.9378,0.9386,0.9392,0.9391,0.9293,0,0,0,0,0,0.9284,0.9301,0.93,0.933,0.9334,0.9328,0.9337,0.9329,0.9336,0.9339,0.934,0.9347,0.9364,0.9375,0.9389,0.9428,0.943,0.9447,0.9453,0.9458,0.9463,0.9486,0.9494,0.9406,0.9406,0.9406,0,0,0.9307,0.9309,0.9321,0.9337,0.9341,0.936,0.9331,0.9351,0.9366,0.9342,0.937,0.9371,0.9379,0.9414,0.9429,0.9416,0.9488,0.9463,0.9467,0.9469,0.949,0.9499,0.9506,0.9408,0.9408,0.9407,0,0,0.9359,0.9362,0.9388,0.9393,0.94,0.9396,0.9403,0.9406,0.9406,0.9434,0.9417,0.9434,0.9462,0.9469,0.9476,0.9532,0.9519,0.9537,0.957,0.9592,0.9599,0.9606,0.9627,0.9635,0.9541,0.9542,0.9542,0,0.9387,0.9414,0.9403,0.9425,0.9434,0.9413,0.9441,0.9446,0.9458,0.9464,0.9449,0.9485,0.9489,0.9526,0.954,0.9545,0.9553,0.9537,0.9599,0.9605,0.9611,0.9631,0.9639,0.9544,0.9544,0.9543,0.9543,0,0.945,0.9469,0.9489,0.9501,0.9512,0.9536,0.953,0.9542,0.9533,0.9531,0.9561,0.9565,0.9581,0.9589,0.958,0.9625,0.9617,0.9601,0.9575,0.9622,0.9641,0.9649,0.9547,0.9546,0.9546,0.9545,0,0,0.9522,0.9529,0.9536,0.9542,0.9549,0.9564,0.9588,0.9604,0.9615,0.9624,0.9645,0.967,0.9655,0.9664,0.9656,0.9675,0.9722,0.9657,0.9657,0.967,0.9774,0.9787,0.9796,0.9713,0.9714,0.9715,0.9773,0,0.9575,0.9617,0.9608,0.9649,0.9668,0.9649,0.967,0.9678,0.9677,0.9693,0.9692,0.971,0.9689,0.9694,0.9712,0.9712,0.9743,0.9708,0.9734,0.9735,0.9734,0.9806,0.9819,0.9874,0.9781,0.9782,0.9783,0,0.9642,0.9654,0.9697,0.9703,0.971,0.973,0.9744,0.9759,0.9767,0.9766,0.9775,0.9765,0.979,0.9763,0.9799,0.9775,0.9785,0.9787,0.9789,0.9792,0.9762,0.9812,0.9891,0.99,0.9794,0.9793,0.9792,0,0.9693,0.972,0.975,0.9755,0.9762,0.9776,0.9779,0.9786,0.9797,0.9809,0.9816,0.9832,0.9841,0.9853,0.9848,0.9828,0.9885,0.9857,0.9886,0.9886,0.9899,0.9899,0.9983,0.9904,0.9903,0.9903,0.9903,0,0.9754,0.9782,0.9773,0.9791,0.9822,0.9812,0.9843,0.9844,0.9851,0.987,0.9855,0.9873,0.9864,0.9882,0.9877,0.9909,0.9912,0.9913,0.9912,0.9915,0.9915,0.9922,0.9919,0.9905,0.9905,0.9905,0.9904,0,0.9816,0.9811,0.9843,0.9847,0.9848,0.9871,0.9875,0.9893,0.9891,0.9916,0.9921,0.9918,0.9939,0.9934,0.9957,0.9954,0.9994,0.9987,0.9991,0.999,1.002,1.0018,1.0112,1.0125,1.0036,1.0037,1.0038,0,0.9856,0.9877,0.9883,0.9895,0.99,0.9919,0.9929,0.9921,0.9933,0.9944,0.9961,0.9981,0.9996,1.003,1.0031,1.0048,1.0043,1.0075,1.0046,1.0049,1.0046,1.0045,1.0048,1.0081,1.0082,1.0083,1.0084,0,0.9928,0.9925,0.994,0.9956,0.997,0.9982,0.9992,1.0003,0.9995,1.0009,1.003,1.0042,1.0066,1.0086,1.0102,1.0107,1.0095,1.0093,1.0101,1.0105,1.0107,1.0108,1.0009,1.0091,1.009,1.009,1.0089,1.0089,0.9981,1.0,1.0007,1.0026,1.0033,1.0044,1.0061,1.0062,1.0079,1.0098,1.0091,1.0116,1.0125,1.0146,1.0153,1.0173,1.0161,1.0172,1.0175,1.0178,1.0183,1.0103,1.0175,1.0175,1.0175,1.0175,1.0175,0,1.0054,1.0058,1.0075,1.0091,1.0106,1.0092,1.0104,1.0118,1.0139,1.0149,1.0164,1.0189,1.0209,1.0212,1.0231,1.0246,1.0241,1.0252,1.0251,1.0253,1.0191,1.0183,1.0256,1.0256,1.0256,1.0256,1.0256,1.0256,1.0093,1.0124,1.0122,1.0157,1.0161,1.0185,1.0193,1.0203,1.0211,1.024,1.0256,1.0258,1.0265,1.0284,1.0302,1.0303,1.0311,1.0324,1.0323,1.0265,1.0257,1.0249,1.0242,1.0326,1.0326,1.0383,1.0384,1.0384]}]]